[[{"header":{"parameterUnit":"m.s-1","parameterCategory":1,"la1":30.2991,"la2":30.254,"lo1":-89.0895,"lo2":-89.0444,"dy":0.0017,"dx":0.0017,"nx":28,"ny":28,"refTime":"2025-04-09T09:00:00:Z","depth":0,"parameterNumber":2,"parameterNumberName":"U-component_of_WINDS"},"data":[0,0,0,0,0,0,0,0,0,0,0,0,0,0,0,0,0,0,0,0,0,0,0,0,0,0,0,0,0,0,0,0,0,0,0,0,0,0,0,0,0,0,0,0,0,0,0,0,0,0,0,0,0,0,0,0,0,0,-1.2909,-1.2909,0,-1.2951,-1.2952,-1.2952,-1.2879,-1.2877,-1.2874,-1.2872,-1.2918,-1.2922,-1.2925,0,0,0,0,0,0,0,0,0,0,0,0,0,-1.2765,-1.2768,-1.2909,-1.2909,-1.291,-1.2951,-1.2952,-1.2952,-1.2879,-1.2876,-1.2873,-1.2871,-1.2917,-1.2921,-1.2926,0,0,0,0,0,0,0,0,0,0,0,0,0,-1.282,-1.2769,-1.2909,-1.2878,-1.2876,-1.2951,-1.2952,-1.2952,-1.288,-1.2876,-1.2873,-1.2869,-1.2916,-1.2921,-1.2926,-1.3034,0,0,-1.2942,-1.2945,0,0,0,0,0,0,0,0,-1.2817,-1.2825,-1.2882,-1.2881,-1.2878,-1.2906,-1.2918,-1.298,-1.2881,-1.2879,-1.2872,-1.2867,-1.2917,-1.2922,-1.2939,-1.3036,-1.3038,-1.2943,-1.2946,-1.2948,-1.295,0,0,0,0,0,0,0,-1.2813,-1.2823,-1.2926,-1.2883,-1.2881,-1.2863,-1.2867,-1.293,-1.2919,-1.2879,-1.2873,-1.2879,-1.2915,-1.2934,-1.2939,-1.3038,-1.2943,-1.2947,-1.2951,-1.2953,-1.3225,-1.3228,0,0,0,0,0,0,-1.2813,-1.282,-1.2924,-1.2927,-1.2838,-1.2869,-1.2873,-1.2901,-1.2918,-1.2916,-1.2882,-1.2876,-1.2926,-1.2933,-1.294,-1.3067,-1.2948,-1.2953,-1.2956,-1.3221,-1.3225,-1.323,0,0,0,0,0,0,-1.281,-1.2823,-1.2922,-1.2872,-1.2883,-1.2875,-1.2907,-1.2904,-1.2922,-1.292,-1.2918,-1.2903,-1.2924,-1.2933,-1.301,-1.3068,-1.2956,-1.2961,-1.3216,-1.3222,-1.3228,-1.3322,0,0,0,0,0,0,-1.2806,-1.2822,-1.2863,-1.2874,-1.2886,-1.2992,-1.2911,-1.2907,-1.2931,-1.2922,-1.2939,-1.2938,-1.2921,-1.3003,-1.3016,-1.3073,-1.2965,-1.3211,-1.3219,-1.3226,-1.3314,-1.3331,-1.3345,0,0,0,0,0,-1.2801,-1.2889,-1.2866,-1.2879,-1.2937,-1.2995,-1.3003,-1.2981,-1.2936,-1.2977,-1.2975,-1.2938,-1.3059,-1.3011,-1.3025,-1.3085,-1.3207,-1.3216,-1.3225,-1.3307,-1.3327,-1.3345,0,0,0,0,0,0,-1.2887,-1.289,-1.2864,-1.2957,-1.2977,-1.2983,-1.3034,-1.3003,-1.3037,-1.3028,-1.2999,-1.3004,-1.3087,-1.3093,-1.3041,-1.3189,-1.3125,-1.3138,-1.3183,-1.3202,-1.3217,-1.3215,-1.2969,0,0,0,0,0,-1.2917,-1.2963,-1.2963,-1.3045,-1.3056,-1.3044,-1.3068,-1.3049,-1.3068,-1.3077,-1.3081,-1.3102,-1.3144,-1.3173,-1.3212,-1.3313,-1.3316,-1.3361,-1.3377,-1.3389,-1.3401,-1.3454,-1.3475,-1.326,-1.3259,-1.3259,0,0,-1.2979,-1.2986,-1.3017,-1.3063,-1.3075,-1.3125,-1.3051,-1.3107,-1.3143,-1.3085,-1.3159,-1.3162,-1.3183,-1.3273,-1.3313,-1.3281,-1.346,-1.3401,-1.3411,-1.3416,-1.3466,-1.3486,-1.3504,-1.3266,-1.3265,-1.3264,0,0,-1.3117,-1.3127,-1.3196,-1.321,-1.3229,-1.322,-1.3236,-1.3247,-1.3247,-1.332,-1.3277,-1.3319,-1.3394,-1.341,-1.3428,-1.357,-1.3537,-1.3583,-1.3665,-1.3718,-1.3735,-1.375,-1.3801,-1.3819,-1.3594,-1.3594,-1.3595,0,-1.3193,-1.3265,-1.3236,-1.3295,-1.3316,-1.3263,-1.3334,-1.3348,-1.338,-1.3396,-1.3359,-1.3449,-1.346,-1.3553,-1.3587,-1.3603,-1.3621,-1.3583,-1.3734,-1.3749,-1.3763,-1.3811,-1.383,-1.36,-1.3599,-1.3599,-1.3598,0,-1.3356,-1.3407,-1.346,-1.3491,-1.3518,-1.3582,-1.3563,-1.3594,-1.3571,-1.3566,-1.364,-1.365,-1.369,-1.371,-1.369,-1.38,-1.3779,-1.3739,-1.3674,-1.3789,-1.3834,-1.3853,-1.3608,-1.3606,-1.3604,-1.3603,0,0,-1.3554,-1.3565,-1.3586,-1.3598,-1.3614,-1.3653,-1.3714,-1.3751,-1.3778,-1.3801,-1.3852,-1.3914,-1.3876,-1.3897,-1.3877,-1.3923,-1.4034,-1.3876,-1.3876,-1.3906,-1.4156,-1.4188,-1.421,-1.4011,-1.4014,-1.4017,-1.4155,0,-1.3692,-1.3797,-1.3772,-1.3876,-1.3922,-1.3871,-1.3924,-1.3939,-1.3935,-1.3974,-1.3968,-1.4013,-1.396,-1.3972,-1.4014,-1.4012,-1.4084,-1.4001,-1.4059,-1.4061,-1.4058,-1.4233,-1.4267,-1.4397,-1.4172,-1.4175,-1.4177,0,-1.3869,-1.3896,-1.4005,-1.4011,-1.403,-1.4078,-1.411,-1.4147,-1.4163,-1.4156,-1.4178,-1.4149,-1.4209,-1.4141,-1.4224,-1.4168,-1.4189,-1.4191,-1.4196,-1.4202,-1.4128,-1.4246,-1.4438,-1.4458,-1.4205,-1.4202,-1.42,0,-1.4003,-1.4067,-1.414,-1.4152,-1.4162,-1.4197,-1.4203,-1.4215,-1.4238,-1.4266,-1.4281,-1.4315,-1.4335,-1.4362,-1.4342,-1.4295,-1.4428,-1.4359,-1.4425,-1.4426,-1.4458,-1.4457,-1.4658,-1.4469,-1.4469,-1.4468,-1.4468,0,-1.4162,-1.423,-1.42,-1.4246,-1.432,-1.429,-1.4365,-1.4365,-1.4375,-1.442,-1.4377,-1.4419,-1.439,-1.443,-1.4415,-1.4486,-1.4494,-1.4491,-1.4487,-1.4496,-1.4497,-1.4512,-1.4503,-1.4473,-1.4472,-1.4471,-1.447,0,-1.4326,-1.4309,-1.4385,-1.4386,-1.4388,-1.4444,-1.4445,-1.4487,-1.4478,-1.4534,-1.4545,-1.4532,-1.4576,-1.4559,-1.4606,-1.4596,-1.4686,-1.4669,-1.4681,-1.4677,-1.4745,-1.4739,-1.4964,-1.4992,-1.4784,-1.4786,-1.4788,0,-1.443,-1.4481,-1.4487,-1.4513,-1.4521,-1.4564,-1.4587,-1.4558,-1.4584,-1.4605,-1.4644,-1.4684,-1.4716,-1.4789,-1.4783,-1.4819,-1.4803,-1.4879,-1.4809,-1.4816,-1.4806,-1.4804,-1.4809,-1.4895,-1.4897,-1.4899,-1.4901,0,-1.4615,-1.4604,-1.4638,-1.467,-1.4698,-1.4722,-1.4742,-1.4765,-1.4737,-1.4769,-1.4813,-1.4837,-1.4884,-1.4924,-1.4955,-1.4961,-1.4927,-1.4922,-1.494,-1.4951,-1.4956,-1.4955,-1.4722,-1.4918,-1.4916,-1.4915,-1.4914,-1.4913,-1.4753,-1.4796,-1.4807,-1.4847,-1.4858,-1.4877,-1.4916,-1.491,-1.4947,-1.4982,-1.4962,-1.5014,-1.5027,-1.5065,-1.5075,-1.5115,-1.5085,-1.511,-1.5117,-1.5124,-1.5133,-1.4948,-1.512,-1.512,-1.5119,-1.5119,-1.5118,0,-1.4938,-1.4942,-1.4978,-1.5006,-1.5037,-1.5,-1.5019,-1.5048,-1.5093,-1.5108,-1.5138,-1.5188,-1.5226,-1.5223,-1.5258,-1.5291,-1.5276,-1.5301,-1.5299,-1.5301,-1.5157,-1.5139,-1.5312,-1.5312,-1.5312,-1.5312,-1.5312,-1.5312,-1.5038,-1.5108,-1.5097,-1.5172,-1.5175,-1.5224,-1.5239,-1.5256,-1.5267,-1.5324,-1.5355,-1.5352,-1.5359,-1.5394,-1.5427,-1.5425,-1.5441,-1.5472,-1.5465,-1.5331,-1.5311,-1.5293,-1.5276,-1.5475,-1.5476,-1.5605,-1.5606,-1.5607]},{"header":{"parameterUnit":"m.s-1","parameterCategory":1,"la1":30.2991,"la2":30.254,"lo1":-89.0895,"lo2":-89.0444,"dy":0.0017,"dx":0.0017,"nx":28,"ny":28,"refTime":"2025-04-09T09:00:00:Z","depth":0,"parameterNumber":3,"parameterNumberName":"V-component_of_WINDS"},"data":[0,0,0,0,0,0,0,0,0,0,0,0,0,0,0,0,0,0,0,0,0,0,0,0,0,0,0,0,0,0,0,0,0,0,0,0,0,0,0,0,0,0,0,0,0,0,0,0,0,0,0,0,0,0,0,0,0,0,-4.6941,-4.6943,0,-4.7091,-4.7093,-4.7095,-4.7057,-4.7054,-4.7051,-4.7048,-4.7197,-4.7204,-4.721,0,0,0,0,0,0,0,0,0,0,0,0,0,-4.6615,-4.6621,-4.6941,-4.6943,-4.6945,-4.7091,-4.7093,-4.7095,-4.7057,-4.7054,-4.705,-4.7047,-4.7195,-4.7203,-4.7211,0,0,0,0,0,0,0,0,0,0,0,0,0,-4.676,-4.6623,-4.6941,-4.6944,-4.6945,-4.7091,-4.7093,-4.7096,-4.7058,-4.7054,-4.7049,-4.7045,-4.7192,-4.7202,-4.7212,-4.7362,0,0,-4.7243,-4.7247,0,0,0,0,0,0,0,0,-4.6752,-4.6772,-4.6941,-4.6944,-4.6946,-4.7051,-4.7033,-4.7185,-4.7059,-4.7015,-4.7048,-4.7043,-4.7152,-4.7165,-4.7202,-4.7369,-4.7375,-4.7244,-4.725,-4.7254,-4.7257,0,0,0,0,0,0,0,-4.6742,-4.6765,-4.7,-4.6944,-4.6947,-4.6935,-4.6951,-4.7061,-4.7106,-4.7019,-4.7016,-4.7035,-4.7152,-4.7193,-4.7206,-4.7377,-4.7243,-4.7252,-4.7258,-4.7262,-4.7672,-4.7677,0,0,0,0,0,0,-4.6731,-4.6757,-4.6995,-4.7005,-4.6836,-4.6945,-4.6963,-4.7022,-4.7105,-4.7113,-4.7038,-4.7033,-4.7178,-4.7194,-4.7211,-4.7391,-4.7254,-4.7263,-4.7269,-4.7667,-4.7673,-4.7678,0,0,0,0,0,0,-4.6724,-4.6752,-4.6989,-4.6881,-4.691,-4.6955,-4.7022,-4.7027,-4.7068,-4.712,-4.7127,-4.7072,-4.7175,-4.7197,-4.7325,-4.7395,-4.7268,-4.7277,-4.7661,-4.7669,-4.7676,-4.7753,0,0,0,0,0,0,-4.6715,-4.675,-4.6809,-4.6882,-4.6916,-4.7103,-4.7026,-4.7033,-4.7086,-4.7079,-4.7154,-4.7162,-4.7173,-4.731,-4.7335,-4.7407,-4.7285,-4.7655,-4.7665,-4.7673,-4.7744,-4.7762,-4.7777,0,0,0,0,0,-4.6703,-4.6824,-4.6812,-4.6841,-4.6991,-4.7107,-4.7126,-4.7138,-4.7092,-4.715,-4.7183,-4.7159,-4.7384,-4.7323,-4.7351,-4.7427,-4.7651,-4.7662,-4.7673,-4.7737,-4.7758,-4.7776,0,0,0,0,0,0,-4.6757,-4.6834,-4.6822,-4.697,-4.7033,-4.71,-4.7175,-4.7161,-4.7237,-4.7228,-4.7238,-4.7255,-4.7385,-4.7419,-4.735,-4.7576,-4.751,-4.7527,-4.7549,-4.757,-4.7586,-4.7575,-4.7293,0,0,0,0,0,-4.6786,-4.6876,-4.6937,-4.7062,-4.7094,-4.7129,-4.718,-4.7185,-4.7249,-4.7275,-4.7317,-4.7379,-4.7463,-4.7518,-4.7599,-4.7748,-4.7763,-4.7814,-4.7831,-4.7844,-4.7858,-4.7938,-4.7961,-4.7714,-4.7714,-4.7714,0,0,-4.6847,-4.69,-4.6956,-4.7075,-4.7123,-4.7214,-4.7152,-4.7251,-4.7318,-4.7289,-4.7413,-4.7446,-4.7515,-4.7654,-4.7718,-4.7686,-4.793,-4.7858,-4.7868,-4.7875,-4.7952,-4.7975,-4.7996,-4.7722,-4.772,-4.7719,0,0,-4.7005,-4.7055,-4.7164,-4.7214,-4.7289,-4.7312,-4.7338,-4.7408,-4.7429,-4.7554,-4.7534,-4.7612,-4.7758,-4.7808,-4.7852,-4.8027,-4.8007,-4.8053,-4.8138,-4.8216,-4.8235,-4.8253,-4.8314,-4.8336,-4.8067,-4.8067,-4.8067,0,-4.7071,-4.7209,-4.7221,-4.7322,-4.7374,-4.7354,-4.7463,-4.751,-4.7607,-4.7642,-4.7606,-4.7787,-4.7833,-4.7982,-4.8025,-4.8062,-4.809,-4.8044,-4.8232,-4.8249,-4.8266,-4.8324,-4.8347,-4.8072,-4.8072,-4.8071,-4.8071,0,-4.7286,-4.7382,-4.746,-4.7556,-4.7616,-4.7721,-4.7747,-4.7806,-4.7805,-4.783,-4.7956,-4.8009,-4.81,-4.8135,-4.8134,-4.8285,-4.8263,-4.8229,-4.8164,-4.8294,-4.8349,-4.8372,-4.8079,-4.8078,-4.8076,-4.8075,0,0,-4.7482,-4.7583,-4.7612,-4.7654,-4.7735,-4.7808,-4.791,-4.8,-4.805,-4.8117,-4.8202,-4.8325,-4.8294,-4.8345,-4.8349,-4.8417,-4.8551,-4.8375,-4.8377,-4.8405,-4.8718,-4.8742,-4.8768,-4.8538,-4.8542,-4.8546,-4.8711,0,-4.7647,-4.7829,-4.7843,-4.8007,-4.8094,-4.8075,-4.8164,-4.8222,-4.8248,-4.8324,-4.8351,-4.8438,-4.8392,-4.8422,-4.8489,-4.852,-4.8613,-4.8509,-4.8615,-4.8619,-4.8598,-4.8797,-4.8823,-4.8977,-4.8733,-4.8737,-4.8739,0,-4.7863,-4.7938,-4.8111,-4.8178,-4.8215,-4.8295,-4.8378,-4.8452,-4.8516,-4.853,-4.8586,-4.858,-4.8683,-4.8614,-4.8754,-4.8683,-4.8727,-4.8748,-4.8755,-4.8765,-4.8687,-4.8811,-4.9027,-4.905,-4.8774,-4.8771,-4.8768,0,-4.7988,-4.8132,-4.8254,-4.8291,-4.8372,-4.8429,-4.8465,-4.8525,-4.8578,-4.8649,-4.8683,-4.8765,-4.8809,-4.8872,-4.8887,-4.8836,-4.9027,-4.896,-4.904,-4.904,-4.9081,-4.9078,-4.9306,-4.9111,-4.911,-4.911,-4.9109,0,-4.817,-4.8276,-4.8311,-4.8386,-4.8503,-4.8516,-4.8632,-4.8664,-4.8718,-4.8797,-4.8785,-4.8859,-4.8876,-4.8952,-4.8965,-4.9078,-4.9099,-4.9111,-4.9113,-4.9113,-4.9111,-4.9141,-4.9131,-4.9116,-4.9115,-4.9113,-4.9112,0,-4.8329,-4.8357,-4.8488,-4.8555,-4.8574,-4.8658,-4.8714,-4.8785,-4.8808,-4.8909,-4.8933,-4.897,-4.906,-4.9082,-4.9188,-4.9196,-4.933,-4.9322,-4.9309,-4.9309,-4.9387,-4.9379,-4.9642,-4.9677,-4.9459,-4.9461,-4.9463,0,-4.8444,-4.8525,-4.8601,-4.8654,-4.8693,-4.8778,-4.8832,-4.8847,-4.8903,-4.8982,-4.9043,-4.9131,-4.9203,-4.9346,-4.9381,-4.9462,-4.9455,-4.9542,-4.9467,-4.9463,-4.9456,-4.9451,-4.9458,-4.9556,-4.9558,-4.956,-4.9562,0,-4.8643,-4.8652,-4.8731,-4.8815,-4.888,-4.8946,-4.901,-4.9053,-4.9076,-4.914,-4.9232,-4.9288,-4.9397,-4.9484,-4.9565,-4.9599,-4.9584,-4.9585,-4.9608,-4.9607,-4.9596,-4.9602,-4.9347,-4.9579,-4.9577,-4.9576,-4.9575,-4.9574,-4.8783,-4.8854,-4.8918,-4.9006,-4.9055,-4.9114,-4.9184,-4.9217,-4.9295,-4.9386,-4.9389,-4.9489,-4.9549,-4.9657,-4.9696,-4.9773,-4.9746,-4.9779,-4.9788,-4.9795,-4.9802,-4.9584,-4.9788,-4.9787,-4.9787,-4.9786,-4.9786,0,-4.8981,-4.9021,-4.9102,-4.9191,-4.926,-4.9241,-4.9309,-4.9367,-4.9456,-4.9514,-4.9585,-4.969,-4.9774,-4.9816,-4.9899,-4.9952,-4.9947,-4.9973,-4.9969,-4.9977,-4.9822,-4.9793,-4.9976,-4.9976,-4.9976,-4.9976,-4.9976,-4.9976,-4.9092,-4.9211,-4.9227,-4.937,-4.9408,-4.9508,-4.9548,-4.9602,-4.9648,-4.9767,-4.9837,-4.9864,-4.9915,-5.0001,-5.0077,-5.0087,-5.0117,-5.0147,-5.0153,-5.0007,-4.9988,-4.997,-4.9943,-5.0154,-5.0154,-5.0302,-5.0303,-5.0304]}]]